Location: Gleizolles
(44.4833°N, 6.7667°E)
Time: 21:17:11
(UTC+00:00)

S-56A Canister/Altair - All Passes

Search period start: 25 June 2024 00:00
Search period end: 05 July 2024 00:00
Orbit: 637 x 2488 km, 38.9° (Epoch: 24 June)

Date Brightness Start Highest point End Pass type
(mag) Time Alt. Az. Time Alt. Az. Time Alt. Az.
25 Jun - 00:22:44 10° W 00:34:09 52° SSW 00:48:18 10° SE visible
25 Jun - 02:28:42 10° W 02:39:06 27° SW 02:50:22 10° S visible
25 Jun - 17:42:22 10° S 17:47:01 19° SE 17:52:54 10° E daylight
25 Jun - 19:42:22 10° SW 19:49:48 50° SSE 20:00:52 10° E visible
25 Jun - 21:45:07 10° W 21:54:25 67° S 22:07:54 10° ESE visible
25 Jun - 23:48:58 10° W 23:59:52 54° SSW 00:13:58 10° SE visible
26 Jun - 01:54:24 10° W 02:04:56 29° SW 02:16:45 10° SSE visible
26 Jun - 17:10:09 10° SSE 17:13:38 15° SE 17:17:43 10° ESE daylight
26 Jun - 19:09:12 10° SW 19:16:03 45° SSE 19:26:11 10° E daylight
26 Jun - 21:11:40 10° WSW 21:20:21 66° S 21:33:13 10° E visible
26 Jun - 23:15:17 10° W 23:25:37 56° SSW 23:39:32 10° SE visible
27 Jun - 01:20:15 10° W 01:30:45 32° SW 01:42:58 10° SSE visible
27 Jun - 16:39:03 10° SE 16:40:16 10° SE 16:41:32 10° ESE daylight
27 Jun - 18:36:07 10° SW 18:42:23 40° SSE 18:51:32 10° E daylight
27 Jun - 20:38:16 10° WSW 20:46:21 64° S 20:58:32 10° E visible
27 Jun - 22:41:40 10° W 22:51:25 58° SSW 23:05:02 10° ESE visible
28 Jun - 00:46:15 10° W 00:56:33 35° SSW 01:09:03 10° SSE visible
28 Jun - 02:56:23 10° WSW 03:00:48 12° SW 03:05:23 10° SSW visible
28 Jun - 18:03:07 10° SSW 18:08:50 34° SSE 18:16:56 10° E daylight
28 Jun - 20:04:56 10° WSW 20:12:26 62° S 20:23:51 10° E visible
28 Jun - 22:08:07 10° W 22:17:17 59° SSW 22:30:28 10° ESE visible
29 Jun - 00:12:22 10° W 00:22:22 37° SSW 00:34:59 10° SSE visible
29 Jun - 02:20:43 10° WSW 02:26:47 14° SW 02:33:16 10° SSW visible
29 Jun - 17:30:12 10° SSW 17:35:20 29° SE 17:42:22 10° E daylight
29 Jun - 19:31:39 10° WSW 19:38:38 58° SSE 19:49:14 10° E daylight
29 Jun - 21:34:38 10° W 21:43:14 60° S 21:55:52 10° ESE visible
29 Jun - 23:38:35 10° W 23:48:13 39° SSW 00:00:49 10° SSE visible
30 Jun - 01:45:46 10° WSW 01:52:45 17° SW 02:00:27 10° SSW visible
30 Jun - 16:57:23 10° SSW 17:01:54 24° SE 17:07:48 10° E daylight
30 Jun - 18:58:26 10° WSW 19:04:53 54° SSE 19:14:39 10° E daylight
30 Jun - 21:01:13 10° W 21:09:14 61° S 21:21:16 10° ESE visible
30 Jun - 23:04:54 10° W 23:14:06 41° SSW 23:26:33 10° SE visible
01 Jul - 01:11:13 10° W 01:18:42 19° SW 01:27:15 10° S visible
01 Jul - 16:24:43 10° S 16:28:31 19° SE 16:33:12 10° E daylight
01 Jul - 18:25:15 10° SW 18:31:13 50° SSE 18:40:08 10° E daylight
01 Jul - 20:27:51 10° W 20:35:19 61° S 20:46:39 10° ESE visible
01 Jul - 22:31:19 10° W 22:40:02 43° SSW 22:52:13 10° SE visible
02 Jul - 00:36:56 10° W 00:44:39 21° SW 00:53:47 10° S visible
02 Jul - 15:52:18 10° S 15:55:10 15° SE 15:58:29 10° ESE daylight
02 Jul - 17:52:06 10° SW 17:57:38 45° SSE 18:05:41 10° E daylight
02 Jul - 19:54:31 10° W 20:01:28 60° S 20:12:05 10° ESE visible
02 Jul - 21:57:47 10° W 22:06:01 45° SSW 22:17:48 10° SE visible
03 Jul - 00:02:51 10° W 00:10:37 23° SW 00:20:07 10° S visible
03 Jul - 15:20:35 10° SSE 15:21:50 11° SE 15:23:10 10° ESE daylight
03 Jul - 17:19:01 10° SW 17:24:07 39° SSE 17:31:19 10° E daylight
03 Jul - 19:21:14 10° WSW 19:27:42 59° S 19:37:32 10° ESE daylight
03 Jul - 21:24:19 10° W 21:32:04 47° SSW 21:43:23 10° SE visible
03 Jul - 23:28:56 10° W 23:36:37 24° SW 23:46:18 10° SSE visible
04 Jul - 16:45:58 10° SW 16:50:39 34° SSE 16:57:00 10° E daylight
04 Jul - 18:47:58 10° WSW 18:53:59 57° S 19:03:05 10° ESE daylight
04 Jul - 20:50:55 10° W 20:58:11 48° SSW 21:08:56 10° SE visible
04 Jul - 22:55:09 10° W 23:02:38 26° SSW 23:12:21 10° SSE visible
